South Haven, MI

1:26 PM EDT on June 28, 2017 (GMT -0400)
South Haven

Weather History for KLWA - March, 2013

Change the Weather History Date:

Saturday, March 16, 2013

  Actual Average (KBEH) Record (KBEH)
Temperature  
Mean Temperature 31 °F -  
Max Temperature 34 °F 45 °F 75 °F (2012)
Min Temperature 28 °F 26 °F 12 °F (2014)
Degree Days  
Heating Degree Days 34    
Moisture  
Dew Point 27 °F    
Average Humidity 84    
Maximum Humidity 98    
Minimum Humidity 69    
Precipitation  
Precipitation 0.00 in - - ()
Sea Level Pressure  
Sea Level Pressure 29.88 in    
Wind  
Wind Speed 8 mph (NNE)    
Max Wind Speed 15 mph    
Max Gust Speed 21 mph    
Visibility 8 miles    
Events Rain , Snow    
Averages and records for this station are not official NWS values.
T = Trace of Precipitation, MM = Missing Value Source: NWS Daily Summary

Daily Weather History Graph

Daily Weather History Graph

Search for Another Location

Airport or City:

Trip Planner

Search our weather history database for the weather conditions in past years. The results will help you decide how hot, cold, wet, or windy it might be!

Date:

Astronomy

Mar. 16, 2013 Rise Set
Actual Time 7:54 AM EDT 7:52 PM EDT
Civil Twilight 7:26 AM EDT 8:20 PM EDT
Nautical Twilight 6:54 AM EDT 8:53 PM EDT
Astronomical Twilight 6:21 AM EDT 9:26 PM EDT
Moon 10:18 AM EDT (3/16) 12:11 AM EDT (3/16)
Length of Visible Light 12h 54m
Length of Day
11h 58m
Waxing Crescent, 23% of the Moon is Illuminated
Mar 16
Waxing Crescent
Mar 19
First Quarter
Mar 27
Full
Apr 3
Last Quarter
Apr 10
New

Hourly Weather History & Observations

Time (EDT) Temp. Windchill Dew Point Humidity Pressure Visibility Wind Dir Wind Speed Gust Speed Precip Events Conditions
12:15 AM 33.3 °F - 32.4 °F 96% 29.81 in 1.8 mi Calm Calm - N/A Rain Light Rain
12:35 AM 33.3 °F 30.2 °F 32.4 °F 96% 29.79 in 1.8 mi ENE 3.5 mph - N/A   Overcast
12:55 AM 33.3 °F 27.9 °F 32.4 °F 96% 29.78 in 1.5 mi ENE 5.8 mph - N/A   Overcast
1:15 AM 33.4 °F 28.1 °F 32.5 °F 96% 29.77 in 1.5 mi NE 5.8 mph - N/A   Overcast
1:35 AM 33.4 °F 29.1 °F 32.9 °F 98% 29.76 in 1.5 mi ENE 4.6 mph - N/A   Overcast
1:55 AM 33.4 °F 28.1 °F 32.9 °F 98% 29.76 in 1.8 mi ENE 5.8 mph - N/A   Overcast
2:15 AM 33.6 °F 26.8 °F 32.9 °F 97% 29.75 in 1.8 mi ENE 8.1 mph - N/A   Overcast
2:35 AM 33.8 °F 26.4 °F 32.9 °F 96% 29.73 in 1.8 mi East 9.2 mph 16.1 mph N/A   Overcast
2:54 AM 33.8 °F 27.0 °F 32.9 °F 96% 29.74 in 2.5 mi East 8.1 mph - N/A   Overcast
3:15 AM 34.0 °F 27.2 °F 32.9 °F 96% 29.76 in 3.0 mi ENE 8.1 mph - N/A   Overcast
3:35 AM 33.8 °F 25.3 °F 32.4 °F 94% 29.74 in 3.0 mi ENE 11.5 mph - N/A Rain Light Rain
3:55 AM 32.9 °F 25.3 °F 32.0 °F 96% 29.73 in 5.0 mi East 9.2 mph 16.1 mph N/A Rain Light Rain
4:15 AM 32.4 °F 25.3 °F 31.6 °F 97% 29.72 in 5.0 mi ENE 8.1 mph - N/A Rain Light Rain
4:35 AM 32.0 °F 23.6 °F 30.7 °F 95% 29.71 in 10.0 mi ENE 10.4 mph - N/A   Light Drizzle
4:55 AM 32.0 °F 22.5 °F 30.2 °F 93% 29.72 in 10.0 mi NE 12.7 mph 16.1 mph N/A   Light Drizzle
5:15 AM 31.8 °F 23.3 °F 30.0 °F 93% 29.71 in 10.0 mi ENE 10.4 mph - N/A Snow Light Snow
5:35 AM 31.8 °F 26.2 °F 30.0 °F 93% 29.71 in 10.0 mi ENE 5.8 mph - N/A   Overcast
6:13 AM 31.6 °F 23.1 °F 29.7 °F 92% 29.72 in 10.0 mi East 10.4 mph 17.3 mph N/A   Overcast
6:35 AM 31.8 °F 25.4 °F 29.8 °F 92% 29.72 in 10.0 mi East 6.9 mph - N/A   Overcast
6:55 AM 31.8 °F 25.4 °F 29.7 °F 92% 29.74 in 10.0 mi ENE 6.9 mph - N/A   Overcast
7:15 AM 32.0 °F 25.6 °F 29.8 °F 92% 29.73 in 10.0 mi East 6.9 mph - N/A   Overcast
7:34 AM 32.0 °F 23.6 °F 29.8 °F 92% 29.72 in 10.0 mi East 10.4 mph - N/A   Overcast
7:55 AM 32.0 °F 25.6 °F 30.0 °F 92% 29.73 in 10.0 mi ENE 6.9 mph - N/A   Overcast
8:14 AM 32.0 °F 26.4 °F 30.0 °F 92% 29.74 in 7.0 mi NE 5.8 mph - N/A   Overcast
8:35 AM 32.0 °F 25.6 °F 30.2 °F 93% 29.76 in 7.0 mi NNE 6.9 mph - N/A   Overcast
8:55 AM 32.0 °F 24.2 °F 29.8 °F 92% 29.77 in 10.0 mi NNE 9.2 mph - N/A   Overcast
9:15 AM 32.0 °F 23.6 °F 29.7 °F 91% 29.78 in 10.0 mi NNE 10.4 mph - N/A   Overcast
9:35 AM 31.6 °F 23.1 °F 29.1 °F 90% 29.79 in 10.0 mi NNE 10.4 mph - N/A   Overcast
9:55 AM 31.1 °F 21.9 °F 28.4 °F 90% 29.79 in 10.0 mi NE 11.5 mph - N/A   Overcast
10:15 AM 31.1 °F 21.9 °F 28.4 °F 90% 29.80 in 7.0 mi NE 11.5 mph - N/A   Overcast
10:35 AM 30.0 °F 20.5 °F 27.7 °F 91% 29.82 in 7.0 mi NNE 11.5 mph - N/A   Overcast
10:54 AM 29.3 °F 19.6 °F 26.4 °F 89% 29.82 in 10.0 mi NE 11.5 mph 18.4 mph N/A   Overcast
11:15 AM 29.1 °F 20.6 °F 26.1 °F 88% 29.84 in 7.0 mi ENE 9.2 mph - N/A   Overcast
11:34 AM 28.8 °F 20.9 °F 25.7 °F 88% 29.86 in 10.0 mi NE 8.1 mph - N/A   Overcast
11:55 AM 29.1 °F 20.6 °F 25.9 °F 88% 29.87 in 10.0 mi NE 9.2 mph - N/A   Overcast
12:15 PM 28.4 °F 20.4 °F 24.6 °F 86% 29.89 in 10.0 mi NE 8.1 mph - N/A   Overcast
12:34 PM 29.1 °F 21.3 °F 25.3 °F 86% 29.90 in 10.0 mi North 8.1 mph - N/A   Overcast
12:55 PM 28.9 °F 21.1 °F 25.3 °F 86% 29.92 in 7.0 mi North 8.1 mph - N/A   Overcast
1:15 PM 29.3 °F 20.8 °F 25.7 °F 86% 29.92 in 10.0 mi North 9.2 mph - N/A   Overcast
1:35 PM 30.4 °F 22.9 °F 26.2 °F 85% 29.92 in 10.0 mi NNE 8.1 mph - N/A   Overcast
1:55 PM 30.7 °F 24.1 °F 25.9 °F 82% 29.94 in 10.0 mi North 6.9 mph - N/A   Overcast
2:14 PM 30.6 °F 22.4 °F 26.2 °F 84% 29.94 in 10.0 mi NNW 9.2 mph - N/A   Overcast
2:35 PM 31.1 °F 21.9 °F 26.4 °F 83% 29.94 in 10.0 mi NNW 11.5 mph - N/A   Overcast
2:55 PM 31.8 °F 23.9 °F 26.1 °F 79% 29.94 in 10.0 mi North 9.2 mph 17.3 mph N/A   Overcast
3:14 PM 32.0 °F 21.6 °F 26.4 °F 80% 29.94 in 10.0 mi NNW 15.0 mph 19.6 mph N/A   Mostly Cloudy
3:35 PM 31.8 °F 21.8 °F 25.9 °F 79% 29.95 in 10.0 mi North 13.8 mph 18.4 mph N/A   Mostly Cloudy
3:54 PM 31.5 °F 22.3 °F 25.7 °F 79% 29.95 in 10.0 mi North 11.5 mph 19.6 mph N/A   Mostly Cloudy
4:15 PM 31.3 °F 22.7 °F 25.3 °F 79% 29.95 in 10.0 mi North 10.4 mph - N/A   Overcast
4:34 PM 31.8 °F 22.3 °F 24.8 °F 75% 29.95 in 10.0 mi NNW 12.7 mph 18.4 mph N/A   Mostly Cloudy
4:55 PM 32.0 °F 23.0 °F 24.6 °F 74% 29.97 in 10.0 mi NNW 11.5 mph 18.4 mph N/A   Scattered Clouds
5:15 PM 32.0 °F 22.5 °F 24.3 °F 73% 29.97 in 10.0 mi NNW 12.7 mph 18.4 mph N/A   Scattered Clouds
5:35 PM 32.0 °F 23.0 °F 23.7 °F 71% 29.98 in 10.0 mi NNW 11.5 mph 20.7 mph N/A   Scattered Clouds
5:55 PM 31.8 °F 21.8 °F 23.7 °F 72% 29.99 in 10.0 mi North 13.8 mph 20.7 mph N/A   Mostly Cloudy
6:14 PM 31.1 °F 21.4 °F 22.6 °F 71% 29.99 in 10.0 mi NNW 12.7 mph 18.4 mph N/A   Scattered Clouds
6:35 PM 31.6 °F 22.6 °F 23.5 °F 72% 29.99 in 10.0 mi NNW 11.5 mph 16.1 mph N/A   Scattered Clouds
6:54 PM 31.1 °F 23.7 °F 22.8 °F 71% 29.99 in 10.0 mi North 8.1 mph 17.3 mph N/A   Scattered Clouds
7:14 PM 30.9 °F 24.3 °F 23.2 °F 73% 30.00 in 10.0 mi NNW 6.9 mph 16.1 mph N/A   Scattered Clouds
7:34 PM 30.6 °F 21.2 °F 22.8 °F 73% 30.00 in 10.0 mi NW 11.5 mph 17.3 mph N/A   Scattered Clouds
7:55 PM 29.8 °F 20.9 °F 21.9 °F 72% 30.01 in 10.0 mi NNW 10.4 mph 19.6 mph N/A   Clear
8:15 PM 29.7 °F 20.7 °F 21.2 °F 71% 30.02 in 10.0 mi NW 10.4 mph 16.1 mph N/A   Scattered Clouds
8:35 PM 29.8 °F 20.9 °F 21.4 °F 71% 30.02 in 10.0 mi NNW 10.4 mph 16.1 mph N/A   Mostly Cloudy
8:55 PM 29.5 °F 21.8 °F 21.0 °F 71% 30.03 in 10.0 mi NW 8.1 mph - N/A   Mostly Cloudy
9:15 PM 29.3 °F 22.3 °F 20.8 °F 71% 30.03 in 10.0 mi NW 6.9 mph - N/A   Scattered Clouds
9:35 PM 29.5 °F 23.4 °F 20.8 °F 70% 30.04 in 10.0 mi NW 5.8 mph - N/A   Mostly Cloudy
9:55 PM 29.3 °F 20.8 °F 21.2 °F 72% 30.06 in 10.0 mi NW 9.2 mph - N/A   Mostly Cloudy
10:15 PM 29.5 °F 24.5 °F 21.0 °F 71% 30.07 in 10.0 mi NW 4.6 mph - N/A   Mostly Cloudy
10:35 PM 29.3 °F 23.2 °F 20.8 °F 71% 30.07 in 10.0 mi NW 5.8 mph - N/A   Overcast
10:54 PM 29.3 °F 21.5 °F 20.3 °F 69% 30.07 in 10.0 mi NW 8.1 mph - N/A   Mostly Cloudy
11:15 PM 29.7 °F 21.3 °F 20.8 °F 70% 30.08 in 10.0 mi NW 9.2 mph - N/A   Mostly Cloudy
11:35 PM 30.0 °F 21.7 °F 21.2 °F 70% 30.08 in 10.0 mi NNW 9.2 mph - N/A   Overcast
11:54 PM 30.0 °F 23.2 °F 21.0 °F 69% 30.08 in 10.0 mi NW 6.9 mph - N/A   Overcast